Simultaneous Nadir Overpasses (SNOs) Predictions

Prediction of SNOs near US between NOAA-19 and NPP Satellite Orbit:

Table of predicted SNOs near US for the next 10.0 days since TLE Epoch: 2/17/2012
Index Date (NOAA-19) Time (NOAA-19) NOAA-19 Lat,Lon Date (NPP) Time (NPP) NPP Lat,Lon Distance(km) Time Diff (sec)
1 02/20/2012 06:31:37 47.94, -65.04 02/20/2012 06:35:35 48.53, -67.91 222.22 238
2 02/20/2012 08:13:08 49.91, -89.70 02/20/2012 08:16:32 50.43, -92.45 204.00 204
3 02/20/2012 09:55:13 49.94,-115.21 02/20/2012 09:58:01 50.48,-117.80 193.82 168
4 02/20/2012 18:03:21 49.90, -78.46 02/20/2012 18:03:22 49.57, -80.08 121.54 1
5 02/20/2012 19:45:28 49.98,-104.03 02/20/2012 19:44:54 49.69,-105.51 111.00 34
6 02/20/2012 21:24:05 37.98,-124.99 02/20/2012 21:22:57 37.71,-126.44 130.36 68
7 02/21/2012 06:27:11 26.20, -69.45 02/21/2012 06:22:55 26.36, -70.34 90.63 256
8 02/21/2012 08:07:14 33.30, -92.99 02/21/2012 08:02:24 33.43, -93.77 73.58 290
9 02/21/2012 09:49:54 31.24,-119.11 02/21/2012 09:44:28 31.38,-119.73 60.76 326
10 02/21/2012 17:52:11 48.42, -75.13 02/21/2012 17:44:01 48.49, -74.86 21.67 490
11 02/21/2012 19:34:43 49.94,-101.33 02/21/2012 19:26:07 50.57,-101.15 71.07 516




NCC Satellite Simultaneous Nadir Overpasses (SNOs) Prediction Service
